STARLINK-32155 (60274 NORAD) Tracking and Keplerian Element Data

This shows tracking and keplerian element data for the satellite.

Feedback or suggestion? Click here.




ElementValue
Catalog60274
NameSTARLINK-32155
Epoch Orbit1305
Epoch Day286.68862639
Epoch Year2024
RAAN276.8497
Inclination53.1583
Eccentricity0.0001772
Argument of Perigee47.7523
Mean Anonmoly312.3632
Mean Motion15.39661575
Decay Rate0.00032052
L11 60274U 24131V 24286.68862639 .00032052 00000+0 80681-3 0 9997
L22 60274 53.1583 276.8497 0001772 47.7523 312.3632 15.39661575 13051



Live tracking and technical data element details for STARLINK-32155 (NORAD 60274). STARLINK-32155 can be tracked NOW for your location showing map with azimuth and elevation plus other details from your city location.







IsCatalogInMostPopularTable: catalog: 60274, numindb: 13
Update: records affected: 1



GetName: 60274 STARLINK-32155

Hit Count: updated at: Thu, 23 Jan 2025 17:19:07 GMT